Location: NJAA Observatory
(40.6819°N, 74.8979°W)
Time: 09:08:59
(UTC-04:00)

Landsat 5 - Visible Passes

Search period start: 30 July 2014 00:00
Search period end: 09 August 2014 00:00
Orbit: 534 x 669 km, 98.1° (Epoch: 29 July)

Date Brightness Start Highest point End Pass type
(mag) Time Alt. Az. Time Alt. Az. Time Alt. Az.
30 Jul 5.4 22:10:04 15° ENE 22:10:16 15° ENE 22:12:25 10° NNE visible
30 Jul 4.9 23:46:51 30° WNW 23:46:51 30° WNW 23:49:19 10° NNW visible
31 Jul 5.1 22:21:53 19° ENE 22:21:53 19° ENE 22:24:35 10° NNE visible
31 Jul 5.4 23:58:40 23° WNW 23:58:40 23° WNW 00:00:44 10° NW visible
01 Aug 4.8 22:33:41 25° ENE 22:33:41 25° ENE 22:36:33 10° NNE visible
02 Aug 5.7 00:10:28 17° WNW 00:10:28 17° WNW 00:12:01 10° NW visible
02 Aug 4.5 22:45:29 32° NE 22:45:29 32° NE 22:48:24 10° N visible
03 Aug 6.1 00:22:16 13° WNW 00:22:16 13° WNW 00:23:07 10° NW visible
03 Aug 4.3 22:57:17 39° NNE 22:57:17 39° NNE 23:00:11 10° N visible
04 Aug 4.3 23:09:06 43° N 23:09:06 43° N 23:11:54 10° N visible
05 Aug 4.5 23:20:54 41° NNW 23:20:54 41° NNW 23:23:33 10° NNW visible
06 Aug 5.7 21:55:55 10° ENE 21:56:03 10° ENE 21:56:29 10° NE visible
06 Aug 4.9 23:32:42 34° NNW 23:32:42 34° NNW 23:35:08 10° NNW visible
07 Aug 5.5 22:07:43 14° ENE 22:07:43 14° ENE 22:09:32 10° NNE visible
07 Aug 5.3 23:44:30 28° NW 23:44:30 28° NW 23:46:39 10° NNW visible
08 Aug 5.3 22:19:31 18° NE 22:19:31 18° NE 22:21:45 10° NNE visible
08 Aug 5.6 23:56:18 22° NW 23:56:18 22° NW 23:58:05 10° NNW visible
